CAPE
0 0 0 0 0 0 0 0 0 0 0 4 60 95 125 144 305 278 183 139 153 211 307 322 343 480 572 1108 1165 1057 1316 1439 1456 2024 1544 1521 1440 1814 1911 1517 1033 876 562 963
0 0 0 0 0 0 0 0 0 0 0 1 50 73 102 87 229 261 216 161 156 175 224 247 252 386 643 872 1135 1363 1271 1902 1836 1901 1689 1696 1533 1555 1562 1047 777 776 220 0
0 0 0 0 0 0 0 0 0 0 0 0 4 26 64 64 94 202 231 225 201 214 237 229 227 337 393 903 1176 1272 1631 2173 2166 1914 1924 1800 1896 1832 1328 1164 303 95 18 11
0 0 0 0 0 0 0 0 0 0 0 0 0 21 7 24 49 128 281 307 291 339 343 372 365 363 507 697 1180 1327 1436 1487 2373 1763 2134 1945 1749 1455 1073 671 688 323 289 441
0 0 0 0 0 0 0 0 0 0 0 0 0 0 12 5 6 114 288 343 379 380 447 473 488 487 376 662 1111 1467 1568 2010 1749 2262 1461 1772 2126 1634 1587 1655 1192 972 977 1313
0 0 0 0 0 0 0 0 0 0 0 0 0 0 11 0 0 42 242 312 396 398 510 584 596 689 659 923 966 1208 1719 1664 2271 2058 2241 2222 2151 1871 2215 1915 1438 1298 1568 2629
0 0 0 0 0 0 0 0 0 0 0 0 0 0 2 11 0 0 6 305 314 365 523 784 804 950 916 966 1207 1369 2174 2187 2412 3065 2466 2319 2768 3347 3484 2641 1321 1152 1343 2883
0 0 0 0 0 0 0 0 0 0 0 0 0 0 1 0 8 0 0 18 135 313 419 661 819 957 1019 1015 1096 1610 2496 2527 3043 2836 3383 3041 2999 3341 3726 3509 2623 2038 1162 1678
0 0 0 0 0 0 0 0 0 0 0 0 0 3 11 0 0 0 0 0 111 315 286 409 700 1078 1102 1005 1201 1512 2470 2773 3304 3388 3177 3739 3922 3768 3894 3477 3270 3080 2099 1232
0 0 0 0 0 0 0 0 0 0 0 0 2 5 0 0 0 0 0 0 29 268 289 459 667 1005 1114 1118 1224 1704 2904 3105 3512 3793 3969 3980 3985 3890 3781 3823 2894 2207 1676 1236
0 0 0 0 0 0 0 0 0 0 0 0 11 5 9 0 0 4 1 58 199 431 313 397 602 955 965 788 961 1665 1871 2374 3438 3545 2591 2988 2834 2570 1330 869 821 1039 1012 1005
0 0 0 0 0 0 0 0 0 0 0 0 0 0 0 0 0 0 2 56 87 689 609 535 503 531 486 141 399 787 256 307 416 191 102 126 704 974 135 319 8 390 644 834
0 0 0 0 0 0 0 0 0 0 0 0 0 0 0 0 0 0 0 20 234 672 876 1133 769 349 200 195 105 202 119 140 65 249 180 107 569 8 41 240 643 662 844 851
0 0 0 0 0 0 0 0 0 0 0 0 0 0 0 0 0 0 12 6 68 1162 972 1127 1384 1023 597 279 224 358 345 41 0 484 550 462 405 381 554 459 947 1043 1131 1214
0 0 0 0 0 0 0 0 0 0 0 0 0 0 0 0 0 7 8 52 147 1953 1658 1345 1292 1219 837 404 245 550 585 526 295 508 445 429 528 308 758 911 987 1162 1080 1017
0 0 0 0 0 0 0 0 0 0 0 0 119 4 0 0 0 0 0 30 1531 2018 1918 1870 1436 1183 992 734 855 479 471 498 506 520 355 282 257 35 71 86 47 43 124 366
0 0 0 0 0 0 0 0 0 2 0 0 30 58 0 0 4 0 0 101 2170 1771 1661 1570 1370 1422 1046 773 586 646 619 512 304 193 107 21 7 0 0 30 38 115 238 217
3 1 3 0 0 0 0 0 0 0 0 20 89 59 30 17 5 3 15 1265 1458 1243 1128 1091 1097 914 639 540 432 396 149 6 0 0 0 0 0 0 0 0 7 34 73 235
0 0 1 0 0 0 0 0 0 14 96 83 67 95 57 66 491 1167 1240 1133 1131 1127 996 804 559 406 233 36 0 0 0 0 0 0 0 0 0 0 0 0 7 84 172 65
0 0 0 13 0 0 0 0 2 8 234 91 9 143 174 191 697 958 877 934 932 861 733 654 541 419 23 0 0 0 0 0 0 0 0 0 0 0 0 0 4 0 7 44
48 4 2 0 0 0 0 0 50 36 11 53 188 197 252 291 744 725 765 786 734 667 529 400 189 1 0 0 0 0 0 0 0 0 0 0 0 0 0 0 0 0 0 78
628 101 23 0 0 0 51 4 120 188 136 249 219 490 746 855 803 809 696 585 456 261 49 2 6 0 0 0 0 0 0 0 0 0 0 0 0 0 0 0 8 7 14 18
288 161 38 450 26 794 515 258 720 261 680 671 604 640 670 702 725 611 273 96 14 0 0 0 0 0 0 0 0 0 0 0 0 0 0 0 0 0 0 0 4 20 19 17
305 403 349 348 664 280 232 432 306 390 857 721 660 589 606 539 485 350 206 50 8 0 0 0 0 0 0 0 0 0 0 0 0 0 0 0 0 0 0 0 10 15 16 6
29 517 1001 1102 802 525 508 411 465 870 979 853 716 660 513 463 364 238 119 11 0 0 0 0 0 0 0 0 0 0 0 0 0 0 2 2 0 0 12 12 15 23 25 17
406 929 713 852 484 557 613 410 637 641 672 760 762 612 562 391 268 190 1 0 0 0 0 0 0 0 0 0 0 0 0 0 1 2 5 4 6 13 17 6 5 17 12 38
CIN
-0 -0 -0 -0 -0 -0 -0 -0 -0 -0 -0 -5 -77 -66 -58 -169 -177 -135 -151 -168 -218 -194 -152 -138 -122 -91 -77 -59 -54 -45 -18 -65 -53 -27 -32 -33 -21 -47 -40 -12 -25 -41 -24 -27
-0 -0 -0 -0 -0 -0 -0 -0 -0 -0 -0 -6 -40 -66 -71 -84 -139 -162 -124 -143 -173 -183 -214 -198 -183 -157 -130 -111 -83 -73 -71 -36 -40 -33 -54 -50 -40 -29 -13 -24 -42 -46 -99 -0
-0 -0 -0 -0 -0 -0 -0 -0 -0 -0 -0 -0 -25 -39 -69 -65 -106 -147 -171 -122 -155 -127 -222 -161 -228 -207 -193 -151 -143 -119 -78 -41 -31 -48 -37 -50 -46 -32 -23 -30 -32 -100 -30 -67
-0 -0 -0 -0 -0 -0 -0 -0 -0 -0 -0 -0 -0 -30 -46 -67 -99 -135 -164 -148 -131 -98 -107 -107 -136 -229 -233 -208 -179 -153 -123 -96 -53 -48 -35 -45 -36 -39 -72 -19 -17 -31 -49 -58
-0 -0 -0 -0 -0 -0 -0 -0 -0 -0 -0 -0 -0 -0 -49 -53 -36 -108 -128 -131 -113 -114 -206 -125 -108 -129 -247 -243 -184 -164 -137 -96 -79 -59 -90 -59 -52 -70 -84 -4 -20 -20 -9 -21
-0 -0 -0 -0 -0 -0 -0 -0 -0 -0 -0 -0 -0 -0 -63 -0 -0 -88 -86 -96 -107 -154 -189 -253 -170 -240 -241 -218 -215 -193 -153 -134 -77 -75 -60 -55 -67 -54 -50 -33 -26 -28 -67 -77
-0 -0 -0 -0 -0 -0 -0 -0 -0 -0 -0 -0 -0 -0 -25 -67 -0 -0 -24 -80 -84 -126 -151 -201 -224 -256 -195 -209 -225 -209 -161 -146 -118 -58 -73 -74 -54 -50 -22 -19 -61 -68 -55 -43
-0 -0 -0 -0 -0 -0 -0 -0 -0 -0 -0 -0 -0 -0 -49 -0 -80 -0 -0 -17 -49 -60 -139 -162 -219 -246 -237 -179 -160 -211 -186 -147 -111 -101 -53 -56 -64 -53 -31 -27 -24 -67 -32 -48
-0 -0 -0 -0 -0 -0 -0 -0 -0 -0 -0 -0 -0 -61 -98 -0 -0 -0 -0 -0 -43 -52 -109 -149 -177 -222 -251 -217 -181 -194 -202 -160 -121 -105 -78 -27 -18 -21 -22 -38 -37 -47 -10 -20
-0 -0 -0 -0 -0 -0 -0 -0 -0 -0 -0 -0 -6 -14 -0 -0 -0 -0 -0 -0 -63 -29 -37 -131 -168 -208 -208 -207 -173 -160 -163 -171 -131 -75 -38 -34 -21 -22 -30 -16 -20 -18 -25 -28
-0 -0 -0 -0 -0 -0 -0 -0 -0 -0 -0 -0 -24 -3 -43 -0 -0 -197 -48 -150 -86 -91 -54 -77 -134 -102 -77 -50 -60 -27 -48 -38 -70 -49 -23 -13 -26 -28 -15 -135 -19 -52 -24 -43
-0 -0 -0 -0 -0 -0 -0 -0 -0 -0 -0 -0 -0 -0 -0 -0 -0 -0 -21 -125 -65 -132 -83 -58 -254 -219 -45 -281 -25 -8 -96 -25 -40 -143 -202 -5 -5 -93 -41 -180 -98 -21 -57 -80
-0 -0 -0 -0 -0 -0 -0 -0 -0 -0 -0 -0 -0 -0 -0 -0 -0 -0 -0 -161 -172 -145 -72 -40 -25 -25 -20 -33 -91 -57 -91 -164 -73 -37 -25 -34 -61 -16 -34 -14 -8 -33 -45 -57
-0 -0 -0 -0 -0 -0 -0 -0 -0 -0 -0 -0 -0 -0 -0 -0 -0 -0 -123 -101 -152 -73 -57 -50 -58 -47 -42 -69 -73 -440 -158 -186 -0 -1 -13 -40 -49 -26 -14 -2 -42 -75 -46 -38
-0 -0 -0 -0 -0 -0 -0 -0 -0 -0 -0 -0 -0 -0 -0 -0 -0 -63 -60 -196 -197 -213 -75 -49 -50 -60 -36 -28 -409 -200 -118 -47 -1 -1 -25 -42 -1 -9 -18 -62 -58 -40 -42 -33
-0 -0 -0 -0 -0 -0 -0 -0 -0 -0 -0 -0 -25 -21 -0 -0 -0 -0 -0 -181 -175 -185 -124 -91 -61 -45 -41 -75 -72 -149 -68 -17 -37 -72 -33 -10 -1 -41 -121 -94 -126 -144 -95 -19
-0 -0 -0 -0 -0 -0 -0 -0 -0 -11 -0 -0 -33 -117 -0 -0 -237 -0 -0 -195 -152 -153 -136 -120 -106 -12 -1 -15 -46 -12 -22 -15 -20 -29 -20 -171 -161 -0 -0 -116 -149 -130 -107 -84
-131 -97 -43 -0 -0 -0 -0 -0 -0 -0 -0 -60 -133 -90 -261 -379 -324 -76 -194 -196 -221 -194 -172 -181 -108 -66 -21 -3 -17 -33 -19 -6 -0 -0 -0 -0 -0 -0 -0 -0 -279 -260 -163 -61
-0 -26 -15 -0 -0 -0 -0 -0 -0 -39 -27 -177 -294 -351 -344 -376 -313 -278 -249 -226 -188 -171 -188 -185 -196 -167 -142 -22 -0 -0 -0 -0 -0 -0 -0 -0 -0 -0 -0 -0 -237 -113 -71 -112
-0 -0 -2 -67 -0 -0 -0 -1 -7 -14 -109 -221 -272 -338 -378 -376 -328 -286 -266 -233 -187 -183 -221 -186 -158 -137 -195 -0 -0 -0 -0 -0 -0 -0 -0 -0 -0 -0 -0 -0 -201 -0 -102 -58
-96 -9 -2 -6 -0 -0 -0 -0 -46 -12 -30 -269 -298 -330 -323 -300 -314 -333 -277 -239 -222 -221 -205 -168 -215 -217 -0 -0 -0 -0 -0 -0 -0 -0 -0 -0 -0 -0 -0 -0 -0 -0 -0 -55
-37 -42 -29 -0 -0 -0 -29 -7 -42 -157 -229 -337 -348 -389 -330 -280 -309 -298 -266 -250 -255 -233 -425 -191 -262 -0 -0 -0 -0 -0 -0 -0 -0 -0 -0 -0 -0 -0 -0 -0 -21 -23 -15 -19
-34 -12 -78 -11 -8 -129 -131 -115 -208 -277 -337 -321 -389 -352 -294 -267 -276 -260 -360 -440 -544 -66 -0 -25 -0 -0 -0 -0 -0 -0 -0 -0 -0 -0 -0 -0 -0 -0 -0 -0 -7 -7 -8 -13
-83 -52 -45 -15 -128 -171 -208 -245 -360 -236 -325 -347 -351 -372 -394 -342 -312 -285 -277 -381 -375 -0 -0 -0 -0 -0 -0 -0 -0 -0 -0 -0 -0 -0 -0 -0 -0 -0 -0 -0 -11 -8 -3 -8
-39 -58 -121 -135 -151 -166 -203 -227 -260 -211 -256 -289 -302 -309 -309 -292 -275 -254 -290 -287 -0 -0 -0 -0 -0 -0 -0 -0 -0 -0 -0 -0 -0 -0 -1 -0 -0 -5 -17 -15 -6 -1 -3 -0
-27 -94 -77 -203 -185 -191 -197 -175 -162 -182 -176 -227 -234 -241 -216 -213 -210 -192 -78 -0 -0 -0 -0 -0 -0 -0 -0 -0 -0 -0 -0 -0 -0 -0 -0 -0 -0 -3 -10 -9 -11 -2 -1 -0
Wind_Speed
nan nan nan nan nan nan nan nan nan nan nan nan nan nan 45 31 32 38 26 23 23 22 20 22 24 23 22 27 27 22 18 23 20 15 16 16 17 14 12 11 18 17 15 15
nan nan nan nan nan nan nan nan nan nan nan nan nan nan 41 nan 45 43 40 26 25 24 26 25 22 21 23 24 22 20 20 18 18 14 14 14 14 11 14 14 20 25 21 nan
nan nan nan nan nan nan nan nan nan nan nan nan nan nan nan nan nan 44 38 28 25 27 30 29 26 23 23 23 21 20 19 17 16 16 13 13 11 9 10 14 22 nan nan nan
nan nan nan nan nan nan nan nan nan nan nan nan nan nan nan nan nan 49 39 31 20 26 30 28 27 25 25 22 22 22 21 19 16 17 14 14 13 12 12 15 19 24 21 21
nan nan nan nan nan nan nan nan nan nan nan nan nan nan nan nan nan 43 46 39 31 23 29 34 31 30 29 27 23 19 20 18 18 17 17 15 14 12 11 12 10 17 30 30
nan nan nan nan nan nan nan nan nan nan nan nan nan nan nan nan nan nan 42 46 51 37 30 29 37 34 30 28 31 27 24 19 18 17 15 15 13 12 14 21 24 19 17 24
nan nan nan nan nan nan nan nan nan nan nan nan nan nan nan nan nan nan nan 51 52 59 48 29 27 35 32 32 36 34 34 31 27 22 19 20 20 18 19 19 24 24 23 27
nan nan nan nan nan nan nan nan nan nan nan nan nan nan nan nan nan nan nan nan 51 56 53 54 37 28 37 35 31 37 35 33 31 31 29 24 20 19 20 18 21 21 28 26
nan nan nan nan nan nan nan nan nan nan nan nan nan nan nan nan nan nan nan nan 42 52 49 51 52 37 33 39 35 31 32 34 34 33 29 27 24 19 16 12 12 18 20 29
nan nan nan nan nan nan nan nan nan nan nan nan nan nan nan nan nan nan nan nan nan 33 45 47 49 51 46 49 37 35 35 48 34 36 34 25 29 28 23 17 11 13 27 36
nan nan nan nan nan nan nan nan nan nan nan nan nan nan nan nan nan nan nan nan 30 31 27 45 42 46 44 44 39 38 54 32 30 37 43 30 17 36 31 19 21 12 24 41
nan nan nan nan nan nan nan nan nan nan nan nan nan nan nan nan nan nan nan nan nan 39 35 37 50 51 46 39 40 42 26 50 45 59 65 11 25 18 7 27 nan 34 36 47
nan nan nan nan nan nan nan nan nan nan nan nan nan nan nan nan nan nan nan nan 38 45 40 39 49 51 49 48 43 35 40 67 nan 24 53 41 34 nan nan 39 32 28 50 48
nan nan nan nan nan nan nan nan nan nan nan nan nan nan nan nan nan nan nan nan nan 35 41 43 45 47 48 44 39 37 31 nan nan 37 45 45 44 41 41 47 45 46 47 51
nan nan nan nan nan nan nan nan nan nan nan nan nan nan nan nan nan nan nan nan 33 46 48 53 46 45 47 44 34 45 44 43 37 43 48 49 48 48 48 47 46 50 54 55
nan nan nan nan nan nan nan nan nan nan nan nan 34 nan nan nan nan nan nan nan 47 47 50 52 57 52 46 44 44 48 49 45 38 44 46 47 48 nan nan nan nan nan 55 59
nan nan nan nan nan nan nan nan nan nan nan nan nan nan nan nan nan nan nan 48 56 57 52 50 50 52 52 50 49 48 45 45 47 48 48 nan nan nan nan nan nan 56 59 60
nan nan nan nan nan nan nan nan nan nan nan nan nan nan nan nan nan nan nan 58 59 59 57 54 54 52 50 50 51 51 50 nan nan nan nan nan nan nan nan nan nan nan nan 56
nan nan nan nan nan nan nan nan nan nan nan nan nan nan nan nan 58 53 55 55 57 60 56 55 52 52 51 nan nan nan nan nan nan nan nan nan nan nan nan nan nan nan 55 nan
nan nan nan nan nan nan nan nan nan nan 42 nan nan 47 51 48 46 42 56 55 57 58 54 55 54 52 nan nan nan nan nan nan nan nan nan nan nan nan nan nan nan nan nan nan
nan nan nan nan nan nan nan nan nan nan nan nan 54 55 55 52 55 60 58 54 56 56 58 53 51 nan nan nan nan nan nan nan nan nan nan nan nan nan nan nan nan nan nan nan
35 36 nan nan nan nan nan nan 39 40 52 54 55 57 65 64 63 64 62 55 60 59 nan nan nan nan nan nan nan nan nan nan nan nan nan nan nan nan nan nan nan nan nan nan
43 41 nan 32 nan 25 33 43 43 48 50 52 63 62 59 62 58 58 56 nan nan nan nan nan nan nan nan nan nan nan nan nan nan nan nan nan nan nan nan nan nan nan nan nan
54 43 43 40 34 42 47 47 48 52 54 59 65 65 64 60 52 57 63 nan nan nan nan nan nan nan nan nan nan nan nan nan nan nan nan nan nan nan nan nan nan nan nan nan
nan 39 42 43 50 49 53 53 54 63 64 64 60 61 62 62 58 61 60 nan nan nan nan nan nan nan nan nan nan nan nan nan nan nan nan nan nan nan nan nan nan nan nan nan
38 45 46 41 35 53 50 49 58 62 59 61 66 63 62 66 68 64 nan nan nan nan nan nan nan nan nan nan nan nan nan nan nan nan nan nan nan nan nan nan nan nan nan nan
Wind_Direction
nan nan nan nan nan nan nan nan nan nan nan nan nan nan 345 5 357 360 356 11 17 16 19 17 21 19 14 16 20 26 19 24 24 27 29 34 38 22 14 333 282 241 229 295
nan nan nan nan nan nan nan nan nan nan nan nan nan nan 328 nan 358 358 356 350 359 11 8 14 20 16 14 14 17 16 17 13 14 14 19 21 25 0 345 329 306 327 341 nan
nan nan nan nan nan nan nan nan nan nan nan nan nan nan nan nan nan 346 0 358 355 354 353 2 11 12 8 8 10 11 8 5 3 4 10 26 32 1 346 351 324 nan nan nan
nan nan nan nan nan nan nan nan nan nan nan nan nan nan nan nan nan 339 349 3 14 2 353 353 358 1 3 7 3 2 2 357 349 350 352 7 2 4 348 344 335 340 358 350
nan nan nan nan nan nan nan nan nan nan nan nan nan nan nan nan nan 331 331 353 7 15 3 349 353 354 352 350 358 354 352 345 346 339 351 356 356 354 320 324 345 339 345 0
nan nan nan nan nan nan nan nan nan nan nan nan nan nan nan nan nan nan 330 344 346 354 3 359 345 345 350 341 344 341 341 344 335 343 349 342 342 357 331 328 328 341 339 340
nan nan nan nan nan nan nan nan nan nan nan nan nan nan nan nan nan nan nan 333 337 333 338 353 345 338 344 344 337 335 335 336 335 329 339 345 340 338 341 338 325 323 325 325
nan nan nan nan nan nan nan nan nan nan nan nan nan nan nan nan nan nan nan nan 321 323 327 333 346 327 332 338 339 334 334 331 328 332 331 330 333 331 323 328 318 320 321 326
nan nan nan nan nan nan nan nan nan nan nan nan nan nan nan nan nan nan nan nan 312 316 321 327 332 340 332 330 324 333 323 322 328 322 313 311 312 310 297 304 310 314 304 314
nan nan nan nan nan nan nan nan nan nan nan nan nan nan nan nan nan nan nan nan nan 304 309 316 328 330 333 325 309 311 323 308 306 309 290 293 291 293 280 292 261 320 334 311
nan nan nan nan nan nan nan nan nan nan nan nan nan nan nan nan nan nan nan nan 296 295 290 317 304 272 258 269 257 278 282 252 281 295 258 257 324 302 276 331 253 198 338 317
nan nan nan nan nan nan nan nan nan nan nan nan nan nan nan nan nan nan nan nan nan 291 284 277 296 303 288 303 305 311 285 268 244 244 247 14 294 308 223 322 nan 313 330 315
nan nan nan nan nan nan nan nan nan nan nan nan nan nan nan nan nan nan nan nan 277 286 278 284 286 293 301 303 316 320 308 302 nan 320 335 351 323 nan nan 333 342 336 316 311
nan nan nan nan nan nan nan nan nan nan nan nan nan nan nan nan nan nan nan nan nan 290 293 292 294 298 302 307 309 299 340 nan nan 316 311 318 311 312 314 331 319 303 305 307
nan nan nan nan nan nan nan nan nan nan nan nan nan nan nan nan nan nan nan nan 262 278 292 301 304 300 303 307 312 298 307 314 339 317 310 308 317 322 315 304 303 309 307 307
nan nan nan nan nan nan nan nan nan nan nan nan 255 nan nan nan nan nan nan nan 272 283 294 298 305 305 310 312 308 305 313 324 311 294 301 306 304 nan nan nan nan nan 298 296
nan nan nan nan nan nan nan nan nan nan nan nan nan nan nan nan nan nan nan 281 284 293 293 294 298 300 301 300 303 303 303 300 297 297 296 nan nan nan nan nan nan 296 294 299
nan nan nan nan nan nan nan nan nan nan nan nan nan nan nan nan nan nan nan 280 284 292 290 293 295 295 296 299 297 298 297 nan nan nan nan nan nan nan nan nan nan nan nan 303
nan nan nan nan nan nan nan nan nan nan nan nan nan nan nan nan 251 244 263 278 285 286 290 292 293 293 290 nan nan nan nan nan nan nan nan nan nan nan nan nan nan nan 302 nan
nan nan nan nan nan nan nan nan nan nan 234 nan nan 265 269 266 262 268 276 277 280 285 289 290 289 286 nan nan nan nan nan nan nan nan nan nan nan nan nan nan nan nan nan nan
nan nan nan nan nan nan nan nan nan nan nan nan 266 273 276 270 274 281 277 275 279 284 289 285 283 nan nan nan nan nan nan nan nan nan nan nan nan nan nan nan nan nan nan nan
216 230 nan nan nan nan nan nan 218 226 240 251 253 254 259 265 271 273 276 273 280 287 nan nan nan nan nan nan nan nan nan nan nan nan nan nan nan nan nan nan nan nan nan nan
212 229 nan 239 nan 220 224 248 241 245 254 259 266 271 279 273 272 273 278 nan nan nan nan nan nan nan nan nan nan nan nan nan nan nan nan nan nan nan nan nan nan nan nan nan
210 224 233 238 240 256 259 245 241 249 256 260 266 270 274 284 281 278 275 nan nan nan nan nan nan nan nan nan nan nan nan nan nan nan nan nan nan nan nan nan nan nan nan nan
nan 230 231 227 231 237 231 237 247 255 257 259 266 271 276 281 275 274 279 nan nan nan nan nan nan nan nan nan nan nan nan nan nan nan nan nan nan nan nan nan nan nan nan nan
200 226 235 229 242 248 232 244 252 256 261 264 271 271 272 273 276 280 nan nan nan nan nan nan nan nan nan nan nan nan nan nan nan nan nan nan nan nan nan nan nan nan nan nan